星链-4201 (STARLINK-4201 )

导读 | 豆包AI

STARLINK-4201是美国SpaceX公司星链(Starlink)星座中的一颗互联网通信卫星,于2022年6月17日由猎鹰9号火箭发射升空,属于星链Group 4-16批次。该卫星质量约297千克,运行在高度约548公里的近地轨道,倾角约53.2°,为全球用户提供高速卫星互联网接入服务,是星链全球星座组网的重要组成部分,目前已在轨运行近4年。

Basic Information
目录编号:
52856
目录名称:
STARLINK-4201
国际标识:
2022-062AC
轨道中心:
EARTH
卫星名称:
星链-4201
卫星全名:
星链-4201 (STARLINK-4201 )
卫星状态:
在轨 (已飞行1367 天)
发射日期:
2022-06-17 UTC
国别 :
美国 (US)
星等 :
--
Orbit Information
数据来源 国际轨道数据
星历时间: 2026-03-14T20:46:32+0800
14小时前
查看轨道信息
半长轴: 6917.899km
偏心率: 0.0001206
轨道倾角: 53.217°
近地点辐角 86.694°
升交点赤经 2.429°
平近点角 273.419°
近地点: 538.927km
远地点: 540.597km
周期: 95.438分钟
每日圈数: 15.088342
Detailed Information
固有亮度:
5
最大亮度:
2.5
卫星平台:
Starlink v1.5
覆盖范围:
全球
运营商:
太空探索技术公司
运营商所在国:
美国
制造商(研发单位):
太空探索技术公司
制造商所在国:
美国
使用方式:
暂无
Satellite Introduction
星链(Starlink)计划是由太空探索技术公司(SpaceX)提出的一个巨型低轨卫星互联网星座项目,计划在2019年至2024年间在太空搭建由约1.2万颗卫星组成的“星链”网络,其中1584颗将部署在地球上空550千米处的近地轨道,并从2020年开始工作。该卫星仍在工作。
2D Orbit Map
3D Orbit Map
Orbit Altitude Analysis Chart
Orbit Inclination Analysis Chart
Orbit Comprehensive Analysis Chart
View Comprehensive Chart